Regional Weather Roundup
Issued by NWS

Home | Current Version | Previous Version | Text Only | Print | Product List | Glossary On
Versions: 1 2 3 4 5 6 7 8 9 10 11 12 13 14 15 16 17 18 19 20 21 22 23 24 25 26 27 28 29 30 31 32 33 34 35 36 37 38 39 40 41 42 43 44 45 46 47 48 49 50
000
ASUS46 KSTO 190804
RWRCA

NORTHERN AND CENTRAL CA REGIONAL WEATHER ROUNDUP
NATIONAL WEATHER SERVICE SACRAMENTO CA
100 AM PDT SUN APR 19 2015

NOTE: FAIR INDICATES FEW OR NO CLOUDS BELOW 12,000 FEET WITH NO
SIGNIFICANT WEATHER AND/OR OBSTRUCTIONS TO VISIBILITY.

CAZ001-003-190900-
NORTHWEST AREA

CITY           SKY/WX    TMP DP  RH WIND       PRES   REMARKS
CRESCENT CITY  CLEAR     47  46  97 CALM      29.97S FOG
UKIAH          CLEAR     54  45  71 CALM      29.94R
$$

CAZ006-505>513-190900-
BAY AREA

CITY           SKY/WX    TMP DP  RH WIND       PRES   REMARKS
SANTA ROSA     CLOUDY    49  48  97 CALM      29.94S FOG
SAN RAFAEL     N/A       50  MM  MM MISG
NAPA           CLEAR     49  47  93 SW7       29.94S
CONCORD        CLEAR     53  49  86 N5        29.92S
OAKLAND CITY   N/A       55  MM  MM MISG
OAKLAND        MOCLDY    50  48  93 NW12      29.96S
SAN FRAN CITY  N/A       50  MM  94 MISG
SAN FRAN ARPT  PTCLDY    51  51 100 W9        29.96R
LIVERMORE      CLEAR     59  45  59 W8        29.93R
HAYWARD        CLEAR     51  49  92 NW7       29.96R
REDWOOD CITY   N/A       MM  MM  MM MISG
MOFFETT ARPT   PTCLDY    55  50  83 CALM      29.96S
SAN JOSE ARPT  CLEAR     54  50  86 W3        29.95S
$$
CAZ034-037-514>518-190900-
CENTRAL COAST

CITY           SKY/WX    TMP DP  RH WIND       PRES   REMARKS
WATSONVILLE    CLOUDY    53  50  89 S3        29.99R
SALINAS        CLOUDY    53  49  86 W6        29.98S
MONTEREY       CLOUDY    50  48  93 W7        29.99S FOG
SAN LUIS OBISP CLOUDY    51  48  89 MISG      29.99F
SANTA MARIA    CLOUDY    52  48  86 CALM      30.00S FOG
$$
CAZ015-016-190900-
NORTHERN SACRAMENTO VALLEY

CITY           SKY/WX    TMP DP  RH WIND       PRES   REMARKS
REDDING        CLEAR     75  32  20 N12       29.90R
RED BLUFF      PTCLDY    60  48  64 N5        29.91R
OROVILLE       CLEAR     68  49  50 E8        29.90R
$$
CAZ016>018-190900-
SOUTHERN SACRAMENTO VALLEY

CITY           SKY/WX    TMP DP  RH WIND       PRES   REMARKS
AUBURN         PTCLDY    63  45  51 E7        29.94S
BEALE AFB      PTCLDY    63  48  58 NE3       29.87S
LINCOLN        FAIR      54  46  76 E7        29.88S
MARYSVILLE     PTCLDY    62  49  62 E3        29.89R
SAC INTL ARPT  PTCLDY    58  50  75 SE6       29.88R
MATHER AIRPORT NOT AVBL
DOWNTOWN SAC   N/A       62  MM  MM MISG
SAC EXEC ARPT  PTCLDY    59  49  69 SE3       29.89R
VACAVILLE      PTCLDY    56  48  74 CALM      29.88S
TRAVIS AFB     CLEAR     54  51  87 SW16      29.86S
$$
CAZ019>021-190900-
SAN JOAQUIN VALLEY

CITY           SKY/WX    TMP DP  RH WIND       PRES   REMARKS
STOCKTON       CLEAR     59  49  69 E6        29.90R
MODESTO        PTCLDY    65  46  50 NE3       29.89R
MERCED         PTCLDY    59  43  55 CALM      29.89R
LEMOORE        CLEAR     61  33  35 CALM      29.91R
FRESNO         PTCLDY    66  41  40 W3        29.90R
HANFORD        CLEAR     67  41  38 N5        29.90S
PORTERVILLE    CLEAR     57  36  44 SE9       29.92R
BAKERSFIELD    CLEAR     70  29  21 E5        29.92R
$$
CAZ011-012-071-190900-
NORTHERN MOUNTAINS

CITY           SKY/WX    TMP DP  RH WIND       PRES   REMARKS
YREKA          CLEAR     56  26  31 N12       30.10R
MOUNT SHASTA   CLEAR     46  33  60 CALM      30.11R
ALTURAS        CLEAR     47  19  33 NE6       30.16R
$$
CAZ011-012-071-190900-
SIERRA NEVADA MTNS

CITY           SKY/WX    TMP DP  RH WIND       PRES   REMARKS
BLUE CANYON    CLEAR     57  18  21 E5        30.10S
TAHOE VLY ARPT PTCLDY    40  25  55 CALM      30.16S
MAMMOTH LAKES  FAIR      43  16  33 W8        30.19R
$$



USA.gov is the U.S. government's official web portal to all federal, state and local government web resources and services.